Weather reports worldwide

Advertisment
Sennybridge, United Kingdom (3507): temperature & dewpoint: 11.08.2017 08:00:00 - 17.08.2017 08:00:00 (BST)Sennybridge, United Kingdom (3507): temperature -20cm & temperature -100cm: 11.08.2017 08:00:00 - 17.08.2017 08:00:00 (BST)Sennybridge, United Kingdom (3507): wind speed & gusts: 11.08.2017 08:00:00 - 17.08.2017 08:00:00 (BST)Sennybridge, United Kingdom (3507): wind direction: 11.08.2017 08:00:00 - 17.08.2017 08:00:00 (BST)Sennybridge, United Kingdom (3507): reduced air pressure: 11.08.2017 08:00:00 - 17.08.2017 08:00:00 (BST)Sennybridge, United Kingdom (3507): visibility: 11.08.2017 08:00:00 - 17.08.2017 08:00:00 (BST)Sennybridge, United Kingdom (3507): precipitation: 11.08.2017 08:00:00 - 17.08.2017 08:00:00 (BST)
Date & Time tt [°C] td [°C] tt -20cm [°C] tt -100cm [°C] ff [km/h] ff [kn] fx [km/h] fx [kn] dd ppp [hPa] vv [km] rr [mm]
17.08.2017 08:00:00 15,3 15,3 - - 16 9 - - WSW 1008,4 1,7 1,4
17.08.2017 07:00:00 15,3 15,3 - - 21 11 - - SW 1007,7 2,9 1,0
17.08.2017 06:00:00 15,5 15,5 - - 21 11 - - SW 1007,5 9 0,2
17.08.2017 05:00:00 15,7 15,7 - - 21 11 - - SW 1007,5 22 0,8
17.08.2017 04:00:00 15,4 15,4 - - 15 8 - - SSW 1007,9 1,6 1,6
17.08.2017 03:00:00 15,1 15,1 - - 18 10 - - SW 1008,3 50 4,0
17.08.2017 02:00:00 14,1 13,9 - - 16 9 - - SSW 1008,9 1,5 1,0
17.08.2017 01:00:00 13,9 13,6 - - 18 10 - - S 1009,7 6 1,8
17.08.2017 00:00:00 13,7 13,3 - - 26 14 - - S 1010,5 29 2,0
16.08.2017 23:00:00 13,4 12,6 - - 11 6 - - S 1011,9 3,9 0,8
16.08.2017 22:00:00 13,6 11,7 - - 18 10 - - SSW 1012,1 35 0,0
16.08.2017 21:00:00 13,1 11,7 - - 11 6 - - SSW 1013,2 50 0,2
16.08.2017 20:00:00 13,9 11,2 - - 24 13 - - SSW 1013,9 50 0,0
16.08.2017 19:00:00 14,5 12,0 - - 28 15 - - SSW 1014,2 50 0,0
16.08.2017 18:00:00 15,2 13,0 - - 29 16 48 26 SSW 1014,7 50 0,0
16.08.2017 17:00:00 16,3 12,8 - - 34 18 48 26 SSW 1014,9 50 0,0
16.08.2017 16:00:00 16,3 12,3 - - 29 16 48 26 SSW 1015,2 50 0,0
16.08.2017 15:00:00 16,6 11,9 - - 24 13 46 25 SSW 1015,4 50 0,0
16.08.2017 14:00:00 17,9 12,7 - - 29 16 - - SSW 1016,0 50 0,0
16.08.2017 13:00:00 16,7 12,1 - - 29 16 46 25 SSW 1016,6 50 0,0
16.08.2017 12:00:00 16,5 12,1 - - 31 17 - - SW 1017,2 50 0,0
16.08.2017 11:00:00 16,4 11,8 - - 24 13 - - S 1016,9 50 0,0
16.08.2017 10:00:00 14,4 11,4 16,0 15,0 24 13 - - SSW 1018,0 45 0,0
16.08.2017 09:00:00 13,5 11,5 - - 18 10 - - SSW 1018,5 8 0,0
16.08.2017 08:00:00 11,6 11,0 - - 15 8 - - S 1018,4 17 0,0
16.08.2017 07:00:00 11,1 10,7 - - 13 7 - - S 1018,4 28 0,0
16.08.2017 06:00:00 10,4 9,8 - - 11 6 - - S 1018,6 30 0,0
16.08.2017 05:00:00 10,1 9,4 - - 5 3 - - S 1018,9 35 0,0
16.08.2017 04:00:00 10,9 10,4 - - 9 5 - - S 1019,0 30 0,0
16.08.2017 03:00:00 10,2 10,1 - - 8 4 - - S 1019,3 30 0,0
16.08.2017 02:00:00 10,1 9,8 - - 5 3 - - S 1019,6 24 0,0
16.08.2017 01:00:00 10,6 10,5 - - 8 4 - - SSW 1019,7 12 0,0
16.08.2017 00:00:00 10,5 10,3 - - 5 3 - - SSW 1019,9 12 0,0
15.08.2017 23:00:00 11,5 11,3 - - 13 7 - - SSW 1019,6 4,8 0,0
15.08.2017 22:00:00 11,3 10,9 - - 8 4 - - SSW 1019,4 29 0,0
15.08.2017 21:00:00 11,3 9,9 - - 9 5 - - SW 1018,9 40 0,0
15.08.2017 20:00:00 13,0 10,0 - - 8 4 - - SW 1018,2 11 0,0
15.08.2017 19:00:00 15,1 10,7 - - 21 11 - - SW 1017,5 8 0,0
15.08.2017 18:00:00 15,8 10,9 - - 18 10 - - WSW 1017,1 8 0,0
15.08.2017 17:00:00 15,6 12,1 - - 22 12 - - WSW 1017,1 11 0,0
15.08.2017 16:00:00 16,8 12,6 - - 16 9 - - WSW 1016,5 12 0,0
15.08.2017 15:00:00 15,9 11,2 - - 22 12 - - WSW 1016,4 9 0,0
15.08.2017 14:00:00 16,0 10,5 - - 15 8 - - W 1016,3 10 0,0
15.08.2017 13:00:00 16,1 11,8 - - 9 5 - - W 1015,8 18 0,0
15.08.2017 12:00:00 16,2 11,8 - - 15 8 - - WSW 1015,3 15 0,0
15.08.2017 11:00:00 14,9 11,1 - - 11 6 - - WSW 1015,2 8 0,0
15.08.2017 10:00:00 14,6 11,2 16,0 15,0 4 2 - - WNW 1014,8 50 0,0
15.08.2017 09:00:00 13,2 11,8 - - 5 3 - - W 1014,7 35 0,0
15.08.2017 08:00:00 11,8 11,1 - - 8 4 - - WSW 1014,4 10 0,0
15.08.2017 07:00:00 12,3 12,1 - - 5 3 - - W 1013,7 11 0,0
15.08.2017 06:00:00 12,1 11,9 - - 11 6 - - SW 1013,0 21 0,0
15.08.2017 05:00:00 12,5 12,5 - - 13 7 - - WSW 1012,7 22 0,0
15.08.2017 04:00:00 12,6 12,6 - - 13 7 - - WSW 1012,7 0,7 0,2
15.08.2017 03:00:00 12,6 12,3 - - 21 11 - - SW 1012,6 24 0,0
15.08.2017 02:00:00 13,4 13,0 - - 24 13 - - WSW 1012,6 40 1,0
15.08.2017 01:00:00 13,5 13,1 - - 21 11 - - SW 1012,4 50 0,2
15.08.2017 00:00:00 13,4 13,0 - - 24 13 - - SSW 1012,8 50 0,0
14.08.2017 23:00:00 13,5 13,1 - - 18 10 - - SW 1013,0 45 0,2
14.08.2017 22:00:00 14,0 13,7 - - 16 9 - - SSW 1012,9 50 1,4
14.08.2017 21:00:00 14,2 13,7 - - 15 8 - - S 1013,1 9 1,2
14.08.2017 20:00:00 14,5 13,8 - - 18 10 - - SSW 1012,8 11 0,8
14.08.2017 19:00:00 14,6 13,7 - - 21 11 - - S 1012,8 15 0,4
14.08.2017 18:00:00 15,5 13,3 - - 18 10 - - SSW 1013,3 50 0,0
14.08.2017 17:00:00 15,6 13,6 - - 16 9 - - S 1013,6 45 0,0
14.08.2017 16:00:00 15,8 13,3 - - 15 8 - - S 1014,1 40 0,0
14.08.2017 15:00:00 15,9 13,0 - - 18 10 - - S 1014,6 50 0,0
14.08.2017 14:00:00 15,8 13,0 - - 16 9 - - S 1014,9 50 0,0
14.08.2017 13:00:00 15,2 12,6 - - 18 10 - - S 1015,2 50 0,0
14.08.2017 12:00:00 14,0 12,1 - - 16 9 - - SSW 1015,9 50 0,0
14.08.2017 11:00:00 13,5 11,6 - - 18 10 - - S 1016,3 50 0,0
14.08.2017 10:00:00 13,5 12,2 16,2 15,0 18 10 - - N 1016,5 70 0,0
14.08.2017 09:00:00 12,2 11,4 - - 11 6 - - S 1016,8 50 0,0
14.08.2017 08:00:00 11,6 11,2 - - 16 9 - - SSW 1017,3 12 1,0
14.08.2017 07:00:00 11,3 10,6 - - 13 7 - - SSW 1017,1 11 0,6
14.08.2017 06:00:00 11,5 11,1 - - 11 6 - - S 1017,0 9 1,0
14.08.2017 05:00:00 11,3 10,9 - - 9 5 - - SSW 1017,3 13 0,4
14.08.2017 04:00:00 12,0 10,8 - - 8 4 - - S 1018,0 30 0,0
14.08.2017 03:00:00 12,0 10,7 - - 13 7 - - SSE 1018,2 28 0,0
14.08.2017 02:00:00 11,8 10,5 - - 9 5 - - S 1018,8 40 0,0
14.08.2017 01:00:00 11,9 10,5 - - 11 6 - - S 1019,3 45 0,0
14.08.2017 00:00:00 10,7 9,7 - - 8 4 - - SE 1020,0 35 0,0
13.08.2017 23:00:00 11,3 10,2 - - 8 4 - - S 1020,4 45 0,0
13.08.2017 22:00:00 12,1 10,5 - - 5 3 - - S 1020,6 40 0,0
13.08.2017 21:00:00 12,9 11,0 - - 5 3 - - SW 1020,4 45 0,0
13.08.2017 20:00:00 14,5 11,2 - - 11 6 - - SW 1020,3 50 0,0
13.08.2017 19:00:00 15,5 10,5 - - 11 6 - - SW 1020,2 50 0,0
13.08.2017 18:00:00 16,8 10,1 - - 9 5 - - SW 1020,2 50 0,0
13.08.2017 17:00:00 16,5 10,1 - - 15 8 - - WSW 1020,6 50 0,0
13.08.2017 16:00:00 16,5 10,1 - - 11 6 - - SW 1020,8 50 0,0
13.08.2017 15:00:00 16,6 9,7 - - 13 7 - - SW 1021,0 45 0,0
13.08.2017 14:00:00 15,8 10,0 - - 9 5 - - W 1021,2 50 0,0
13.08.2017 13:00:00 15,6 10,6 - - 11 6 - - WSW 1021,4 50 0,0
13.08.2017 12:00:00 15,5 9,6 - - 9 5 - - SW 1021,8 50 0,0
13.08.2017 11:00:00 13,8 12,2 - - 5 3 - - N 1022,1 50 0,0
13.08.2017 10:00:00 11,0 10,7 16,0 15,0 5 3 - - N 1022,5 4,5 0,0
13.08.2017 09:00:00 9,8 9,8 - - 4 2 - - N 1022,4 1,5 0,0
13.08.2017 08:00:00 7,2 7,2 - - 2 1 - - N 1022,6 0,3 0,0
13.08.2017 07:00:00 7,1 7,1 - - 5 3 - - NNE 1022,2 1,0 0,0
13.08.2017 06:00:00 4,5 4,5 - - 2 1 - - NNE 1022,4 0,2 0,0
13.08.2017 05:00:00 4,8 4,8 - - 2 1 - - SSE 1022,3 0,5 0,0
13.08.2017 04:00:00 5,9 5,9 - - 4 2 - - SSW 1022,2 0,2 0,0
13.08.2017 03:00:00 6,6 6,6 - - 4 2 - - SSE 1022,0 0,4 0,0
13.08.2017 02:00:00 7,4 7,3 - - 5 3 - - S 1021,9 0,8 0,0
13.08.2017 01:00:00 8,4 8,3 - - 5 3 - - SSW 1021,8 17 0,0
13.08.2017 00:00:00 8,8 8,7 - - 8 4 - - S 1021,6 30 0,0
12.08.2017 23:00:00 8,8 7,8 - - 4 2 - - SSE 1021,5 40 0,0
12.08.2017 22:00:00 12,3 10,4 - - 4 2 - - W 1020,8 50 0,0
12.08.2017 21:00:00 12,9 10,4 - - 4 2 - - WSW 1020,5 50 0,0
12.08.2017 20:00:00 13,8 10,7 - - 0 0 - - N 1019,9 50 0,0
12.08.2017 19:00:00 15,3 11,4 - - 4 2 - - NW 1019,1 50 0,0
12.08.2017 18:00:00 14,9 11,5 - - 2 1 - - NNW 1019,1 50 0,0
12.08.2017 17:00:00 15,4 12,3 - - 4 2 - - NNW 1018,6 50 0,0
12.08.2017 16:00:00 15,8 11,9 - - 4 2 - - WNW 1018,1 50 0,0
12.08.2017 15:00:00 15,7 12,0 - - 5 3 - - NW 1017,9 50 0,0
12.08.2017 14:00:00 15,7 12,0 - - 4 2 - - W 1017,7 50 0,0
12.08.2017 13:00:00 14,7 12,4 - - 5 3 - - W 1017,7 50 0,0
12.08.2017 12:00:00 14,2 12,4 - - 5 3 - - W 1017,4 50 0,0
12.08.2017 11:00:00 13,4 11,8 - - 9 5 - - W 1017,2 50 0,0
12.08.2017 10:00:00 12,1 11,7 16,0 15,0 5 3 - - W 1017,1 35 0,2
12.08.2017 09:00:00 12,0 11,3 - - 5 3 - - W 1016,6 6 0,0
12.08.2017 08:00:00 11,8 11,2 - - 8 4 - - W 1016,2 35 0,2
12.08.2017 07:00:00 11,6 11,4 - - 2 1 - - WNW 1015,6 45 0,0
12.08.2017 06:00:00 11,7 11,5 - - 0 0 - - N 1015,2 50 0,0
12.08.2017 05:00:00 12,4 12,3 - - 8 4 - - W 1014,9 22 0,0
12.08.2017 04:00:00 12,5 12,5 - - 8 4 - - W 1015,0 25 0,0
12.08.2017 03:00:00 13,1 13,1 - - 2 1 - - W 1015,0 23 0,0
12.08.2017 02:00:00 14,2 14,2 - - 9 5 - - W 1015,0 0,7 0,4
12.08.2017 01:00:00 14,2 14,2 - - 11 6 - - W 1015,0 0,4 0,4
12.08.2017 00:00:00 14,3 14,3 - - 16 9 - - WSW 1015,1 0,2 0,0
11.08.2017 23:00:00 14,4 14,4 - - 15 8 - - WSW 1015,3 0,6 0,0
11.08.2017 22:00:00 14,5 14,4 - - 16 9 - - WSW 1015,6 16 0,0
11.08.2017 21:00:00 14,7 14,6 - - 18 10 - - WSW 1015,6 18 0,2
11.08.2017 20:00:00 14,8 14,8 - - 24 13 - - SW 1015,5 3,0 0,4
11.08.2017 19:00:00 15,0 14,9 - - 24 13 46 25 SW 1015,7 2,5 0,4
11.08.2017 18:00:00 15,0 15,0 - - 24 13 - - SW 1016,1 3,3 0,4
11.08.2017 17:00:00 14,8 14,6 - - 26 14 - - SW 1016,5 3,5 0,4
11.08.2017 16:00:00 14,5 14,4 - - 26 14 - - SW 1017,0 6 0,4
11.08.2017 15:00:00 14,2 14,2 - - 28 15 48 26 WSW 1017,6 4,6 0,2
11.08.2017 14:00:00 13,9 13,8 - - 26 14 - - SW 1017,9 4,4 0,0
11.08.2017 13:00:00 13,7 13,6 - - 22 12 - - WSW 1018,4 12 0,0
11.08.2017 12:00:00 13,1 13,1 - - 22 12 - - SW 1019,1 10 0,2
11.08.2017 11:00:00 12,7 12,5 - - 18 10 - - WSW 1019,5 13 0,2
11.08.2017 10:00:00 12,3 11,5 16,2 15,0 21 11 - - SW 1019,7 29 0,0
11.08.2017 09:00:00 11,9 11,3 - - 16 9 - - WSW 1020,1 26 0,0
11.08.2017 08:00:00 11,6 11,4 - - 16 9 - - SW 1020,3 22 0,0

tt = temperature
td = dewpoint
tt -20cm = temperature -20cm
tt -100cm = temperature -100cm
ff = wind speed
fx = gusts
dd = wind direction
ppp = reduced air pressure
vv = visibility
rr = precipitation

Next stations